• In Russia
  • List of Countries
  • For 7 days
  • Water Temperature
  • Satellite Maps
  • Weather Map
  • Weather Widgets
  • user-avatar
    Login

    Hourly Weather Kitzbuhel

    Today, 28 February, Tuesday

    Time Temperature Precipitation Wind Pressure Humidity
    00:00 -1°C° 0 mm 3 mps 667 mmHg 89%
    01:00 -2°C° 0 mm 4 mps 667 mmHg 87%
    02:00 -2°C° 0 mm 4 mps 666 mmHg 87%
    03:00 -2°C° 0 mm 4 mps 666 mmHg 88%
    04:00 -2°C° 0 mm 4 mps 665 mmHg 89%
    05:00 -2°C° 0 mm 4 mps 665 mmHg 90%
    06:00 -1°C° 0 mm 3 mps 665 mmHg 91%
    07:00 -1°C° 0 mm 3 mps 665 mmHg 92%
    08:00 0°C° 0.1 mm 3 mps 665 mmHg 92%
    09:00 +1°C° 0.1 mm 3 mps 665 mmHg 92%
    10:00 +2°C° 0.1 mm 3 mps 666 mmHg 93%
    11:00 +3°C° 0.4 mm 3 mps 665 mmHg 93%
    12:00 +3°C° 0.4 mm 3 mps 665 mmHg 93%
    13:00 +3°C° 0.4 mm 3 mps 665 mmHg 93%
    14:00 +3°C° 0.4 mm 3 mps 664 mmHg 93%
    15:00 +2°C° 0.4 mm 3 mps 663 mmHg 93%
    16:00 +2°C° 0.4 mm 3 mps 662 mmHg 94%
    17:00 +2°C° 0.4 mm 3 mps 662 mmHg 94%
    18:00 +2°C° 0.4 mm 2 mps 661 mmHg 95%
    19:00 +1°C° 0.4 mm 2 mps 661 mmHg 95%
    20:00 0°C° 1.3 mm 3 mps 661 mmHg 95%
    21:00 0°C° 1.3 mm 3 mps 662 mmHg 95%
    22:00 0°C° 1.3 mm 3 mps 663 mmHg 95%
    23:00 -1°C° 1.2 mm 3 mps 663 mmHg 95%

    Tomorrow, 1 March, Wednesday

    Time Temperature Precipitation Wind Pressure Humidity
    00:00 -2°C° 1.2 mm 3 mps 663 mmHg 95%
    01:00 -2°C° 1.2 mm 3 mps 664 mmHg 95%
    02:00 -2°C° 0.7 mm 3 mps 664 mmHg 96%
    03:00 -4°C° 0.7 mm 3 mps 665 mmHg 96%
    04:00 -4°C° 0.7 mm 3 mps 666 mmHg 96%
    05:00 -3°C° 0.1 mm 2 mps 666 mmHg 95%
    06:00 -4°C° 0.1 mm 2 mps 666 mmHg 94%
    07:00 -4°C° 0.1 mm 2 mps 666 mmHg 93%
    08:00 -3°C° 0.1 mm 2 mps 667 mmHg 91%
    09:00 -2°C° 0.1 mm 3 mps 668 mmHg 89%
    10:00 -1°C° 0.1 mm 3 mps 668 mmHg 87%
    11:00 -1°C° 0.2 mm 3 mps 669 mmHg 87%
    12:00 0°C° 0.2 mm 3 mps 669 mmHg 86%
    13:00 +1°C° 0.2 mm 3 mps 670 mmHg 85%
    14:00 +1°C° 0.2 mm 3 mps 670 mmHg 86%
    15:00 +1°C° 0.2 mm 3 mps 670 mmHg 87%
    16:00 +1°C° 0.2 mm 3 mps 671 mmHg 88%
    17:00 -1°C° 0 mm 2 mps 671 mmHg 89%
    18:00 -3°C° 0 mm 2 mps 671 mmHg 90%
    19:00 -5°C° 0 mm 2 mps 671 mmHg 90%
    20:00 -4°C° 0 mm 2 mps 671 mmHg 89%
    21:00 -4°C° 0 mm 2 mps 672 mmHg 88%
    22:00 -4°C° 0 mm 3 mps 672 mmHg 88%
    23:00 -2°C° 0.1 mm 3 mps 672 mmHg 87%

    Day after tomorrow, 2 March, Thursday

    Time Temperature Precipitation Wind Pressure Humidity
    00:00 -2°C° 0.1 mm 3 mps 672 mmHg 87%
    01:00 -2°C° 0.1 mm 3 mps 672 mmHg 87%
    02:00 -2°C° 0.2 mm 3 mps 671 mmHg 87%
    03:00 -2°C° 0.2 mm 3 mps 671 mmHg 87%
    04:00 -2°C° 0.2 mm 3 mps 671 mmHg 88%
    05:00 -2°C° 0.2 mm 3 mps 671 mmHg 88%
    06:00 -2°C° 0.2 mm 3 mps 671 mmHg 88%
    07:00 -2°C° 0.2 mm 2 mps 671 mmHg 88%
    08:00 +1°C° 0.2 mm 2 mps 672 mmHg 90%
    09:00 +2°C° 0.2 mm 2 mps 672 mmHg 91%
    10:00 +3°C° 0.2 mm 2 mps 673 mmHg 93%
    11:00 +4°C° 0.2 mm 2 mps 673 mmHg 94%
    12:00 +4°C° 0.2 mm 2 mps 673 mmHg 94%
    13:00 +5°C° 0.2 mm 2 mps 674 mmHg 95%
    14:00 +5°C° 0.2 mm 2 mps 674 mmHg 95%
    15:00 +4°C° 0.2 mm 2 mps 675 mmHg 94%
    16:00 +4°C° 0.2 mm 2 mps 675 mmHg 94%
    17:00 +3°C° 0 mm 2 mps 675 mmHg 94%
    18:00 +1°C° 0 mm 2 mps 675 mmHg 95%
    19:00 -1°C° 0 mm 2 mps 676 mmHg 95%
    20:00 -3°C° 0 mm 2 mps 675 mmHg 91%
    21:00 -5°C° 0 mm 2 mps 675 mmHg 86%
    22:00 -6°C° 0 mm 1 mps 674 mmHg 82%
    23:00 -6°C° 0 mm 2 mps 675 mmHg 81%

    3 March, Friday

    Time Temperature Precipitation Wind Pressure Humidity
    00:00 -5°C° 0 mm 2 mps 675 mmHg 81%
    01:00 -5°C° 0 mm 2 mps 675 mmHg 80%
    02:00 -4°C° 0 mm 2 mps 674 mmHg 83%
    03:00 -3°C° 0 mm 2 mps 674 mmHg 86%
    04:00 -2°C° 0 mm 2 mps 674 mmHg 88%
    05:00 -2°C° 0 mm 2 mps 674 mmHg 89%
    06:00 -1°C° 0 mm 2 mps 674 mmHg 89%
    07:00 -1°C° 0 mm 2 mps 673 mmHg 90%
    08:00 +1°C° 0 mm 3 mps 673 mmHg 90%
    09:00 +2°C° 0 mm 3 mps 673 mmHg 90%
    10:00 +4°C° 0 mm 3 mps 673 mmHg 90%
    11:00 +4°C° 0 mm 3 mps 673 mmHg 89%
    12:00 +5°C° 0 mm 3 mps 672 mmHg 89%
    13:00 +7°C° 0 mm 3 mps 672 mmHg 89%
    14:00 +7°C° 0 mm 3 mps 671 mmHg 90%
    15:00 +7°C° 0 mm 3 mps 671 mmHg 91%
    16:00 +5°C° 0 mm 3 mps 670 mmHg 92%
    17:00 +4°C° 0 mm 3 mps 670 mmHg 92%
    18:00 +3°C° 0 mm 3 mps 669 mmHg 93%
    19:00 +2°C° 0 mm 3 mps 669 mmHg 93%
    20:00 +2°C° 0 mm 3 mps 669 mmHg 92%
    21:00 +1°C° 0 mm 4 mps 668 mmHg 92%
    22:00 +1°C° 0 mm 4 mps 668 mmHg 92%
    23:00 +1°C° 0 mm 4 mps 668 mmHg 91%

    4 March, Saturday

    Time Temperature Precipitation Wind Pressure Humidity
    00:00 +2°C° 0 mm 3 mps 668 mmHg 91%
    01:00 +2°C° 0 mm 3 mps 667 mmHg 91%
    02:00 +2°C° 0 mm 3 mps 667 mmHg 91%
    03:00 +2°C° 0 mm 3 mps 667 mmHg 91%
    04:00 +2°C° 0 mm 3 mps 667 mmHg 91%
    05:00 +2°C° 0 mm 3 mps 666 mmHg 90%
    06:00 +1°C° 0 mm 4 mps 666 mmHg 90%
    07:00 +1°C° 0 mm 4 mps 666 mmHg 90%
    08:00 +3°C° 0 mm 3 mps 666 mmHg 88%
    09:00 +4°C° 0 mm 3 mps 667 mmHg 87%
    10:00 +5°C° 0 mm 3 mps 667 mmHg 85%
    11:00 +7°C° 0 mm 3 mps 667 mmHg 84%
    12:00 +8°C° 0 mm 3 mps 667 mmHg 82%
    13:00 +8°C° 0 mm 3 mps 667 mmHg 81%
    14:00 +8°C° 0.1 mm 3 mps 667 mmHg 84%
    15:00 +7°C° 0.1 mm 2 mps 667 mmHg 87%
    16:00 +7°C° 0.1 mm 2 mps 667 mmHg 90%
    17:00 +5°C° 0.1 mm 2 mps 668 mmHg 92%
    18:00 +4°C° 0.1 mm 2 mps 668 mmHg 94%
    19:00 +3°C° 0.1 mm 2 mps 668 mmHg 96%
    20:00 +3°C° 0 mm 2 mps 668 mmHg 96%
    21:00 +2°C° 0 mm 2 mps 669 mmHg 96%
    22:00 +2°C° 0 mm 2 mps 669 mmHg 96%
    23:00 +3°C° 0 mm 1 mps 669 mmHg 96%

    5 March, Sunday

    Time Temperature Precipitation Wind Pressure Humidity
    00:00 +2°C° 0 mm 1 mps 669 mmHg 96%
    01:00 +2°C° 0 mm 1 mps 669 mmHg 96%
    02:00 +1°C° 0 mm 2 mps 669 mmHg 96%
    03:00 +1°C° 0 mm 2 mps 669 mmHg 95%
    04:00 +1°C° 0 mm 2 mps 669 mmHg 94%
    05:00 +1°C° 0 mm 2 mps 669 mmHg 94%
    06:00 -1°C° 0 mm 2 mps 669 mmHg 94%
    07:00 -1°C° 0 mm 2 mps 669 mmHg 94%
    08:00 +1°C° 0 mm 2 mps 670 mmHg 92%
    09:00 +3°C° 0 mm 2 mps 670 mmHg 89%
    10:00 +4°C° 0 mm 2 mps 671 mmHg 87%
    11:00 +5°C° 0.2 mm 2 mps 671 mmHg 86%
    12:00 +5°C° 0.2 mm 2 mps 671 mmHg 86%
    13:00 +5°C° 0.2 mm 2 mps 671 mmHg 85%
    14:00 +5°C° 0.4 mm 2 mps 671 mmHg 86%
    15:00 +5°C° 0.4 mm 2 mps 671 mmHg 87%
    16:00 +5°C° 0.4 mm 2 mps 671 mmHg 88%
    17:00 +4°C° 0.3 mm 2 mps 671 mmHg 90%
    18:00 +3°C° 0.3 mm 2 mps 671 mmHg 93%
    19:00 +2°C° 0.3 mm 2 mps 671 mmHg 95%
    20:00 +3°C° 0.2 mm 1 mps 671 mmHg 94%
    21:00 +2°C° 0.2 mm 1 mps 671 mmHg 94%
    22:00 +2°C° 0.2 mm 1 mps 671 mmHg 94%
    23:00 +2°C° 0.2 mm 1 mps 670 mmHg 94%
    Show more